Probability
3 4 4 3 1 0 0 0 0 0 0 0 0 0 0 0 0 0 0 0 0 0 0 1 1 0 0 0 0 0 0 0 0 0 0 0 0 0 0 0 0 0 1 2 3 3 3 3 3
3 4 4 3 1 0 0 0 0 0 0 0 0 0 0 0 0 0 0 0 1 1 1 2 2 1 0 0 0 0 0 0 0 0 0 0 0 0 0 0 0 0 0 1 2 3 3 3 3
2 4 5 3 1 0 0 0 0 0 0 0 0 0 0 0 0 0 0 0 1 1 1 2 2 1 0 0 0 0 0 0 0 0 0 0 0 0 0 0 1 1 1 0 1 2 3 3 3
4 4 4 2 1 0 1 1 0 0 0 0 0 0 0 0 0 0 0 1 1 1 1 2 2 1 0 0 0 0 0 0 0 0 1 0 0 0 0 0 1 1 1 0 0 1 2 3 3
6 4 2 1 0 0 1 2 1 0 0 0 0 0 0 1 0 0 0 1 0 0 0 1 1 0 0 0 0 0 0 0 0 0 0 0 0 0 0 0 0 0 1 1 0 0 1 3 3
6 4 1 0 0 0 1 1 1 0 0 0 0 0 0 0 0 0 0 0 0 0 0 0 0 0 0 0 0 0 0 0 0 0 0 0 0 0 0 0 0 0 0 0 0 0 1 2 3
5 3 1 0 0 0 0 0 0 0 0 0 0 0 0 0 0 0 0 0 1 1 1 0 0 0 0 0 0 0 0 0 0 0 0 0 0 0 0 0 0 0 1 1 0 0 1 2 3
4 2 1 0 0 0 0 0 0 0 0 0 0 0 0 0 0 0 0 0 1 1 1 0 0 0 0 0 0 0 0 0 0 0 0 0 0 0 0 0 0 1 2 2 1 1 1 3 3
1 1 0 0 0 0 0 0 0 0 0 0 0 0 0 0 0 0 0 0 0 0 0 0 0 0 0 0 0 0 0 0 0 0 0 0 0 0 0 0 0 1 2 2 1 2 3 3 3
0 0 0 0 0 0 0 0 0 0 0 0 0 0 0 0 0 0 0 0 0 0 0 0 0 0 0 0 0 0 0 0 0 0 0 0 0 0 0 1 0 0 1 1 1 2 3 3 3
0 0 0 0 0 0 0 0 0 0 0 0 0 0 0 1 0 0 0 0 0 0 0 0 0 0 0 0 0 0 0 0 0 0 0 0 0 0 0 0 0 0 0 1 2 2 1 1 2
0 0 0 0 0 0 0 0 0 0 0 0 0 0 0 0 0 0 0 0 0 0 0 0 0 0 0 0 0 0 0 0 0 0 0 0 0 0 0 0 0 0 1 2 3 2 1 1 2
0 0 0 0 0 0 0 0 0 0 0 0 0 0 0 0 0 0 0 0 0 0 0 0 0 0 0 0 0 0 0 0 0 0 0 0 0 0 0 0 0 0 1 2 2 1 0 1 1
0 0 0 0 0 0 0 0 0 0 0 0 0 0 0 0 0 0 0 0 0 0 0 0 0 0 0 0 0 0 0 0 0 0 0 0 0 0 0 0 0 0 2 2 2 0 1 2 2
0 0 0 0 0 0 0 0 0 0 0 0 0 0 0 0 0 0 0 0 0 0 0 0 0 0 0 0 0 0 0 0 0 0 0 0 0 0 0 0 0 0 1 2 2 1 1 2 3
0 0 0 0 0 0 0 0 0 0 0 0 0 0 0 0 0 0 0 0 0 0 0 0 0 0 0 0 0 0 0 0 0 0 0 0 0 0 0 0 0 0 1 2 2 2 2 2 1
0 0 0 0 0 0 0 0 0 0 0 0 0 0 0 0 0 0 0 0 0 0 0 0 0 0 0 0 0 0 0 0 0 0 0 0 0 0 1 1 0 0 0 1 1 2 1 1 0
0 0 0 0 0 0 0 0 0 0 0 0 0 0 0 0 0 0 0 0 0 0 0 0 0 0 0 0 0 0 0 0 0 0 0 0 0 0 1 1 0 0 0 0 0 0 0 0 0
0 0 0 0 0 0 0 0 0 0 0 0 0 0 0 0 0 0 0 0 0 0 0 0 0 0 0 0 0 0 0 0 0 0 0 0 0 0 0 0 0 0 0 0 0 0 0 0 0
0 0 0 0 0 0 0 0 0 0 0 0 0 0 0 0 0 0 0 0 0 0 0 0 0 0 0 0 0 0 0 0 0 0 0 0 0 0 0 0 0 0 0 0 0 0 0 0 0
0 0 0 0 0 0 0 0 0 0 0 0 0 0 0 0 0 0 0 0 0 0 0 0 0 0 0 0 0 0 0 0 0 0 0 0 0 0 0 0 0 0 0 0 0 0 0 0 0
0 0 0 0 0 0 0 0 0 0 0 0 0 0 0 0 0 0 0 0 0 0 0 0 0 0 0 0 0 0 0 0 0 0 0 0 0 0 0 0 0 0 0 0 0 0 0 0 0
0 0 0 0 0 0 0 0 0 0 0 0 0 0 0 0 0 0 0 0 0 0 0 0 0 0 0 0 0 0 0 0 0 0 0 0 0 0 0 0 0 0 0 0 0 0 0 0 0
0 0 0 0 0 0 0 0 0 0 0 0 0 0 0 0 0 0 0 0 0 0 0 0 0 0 0 0 0 0 0 0 0 0 0 0 0 0 0 0 0 0 0 0 0 0 0 0 0
0 0 0 0 0 0 0 0 0 0 0 0 0 0 0 0 0 0 0 0 0 0 0 0 0 0 0 0 0 0 0 0 0 0 0 0 0 0 0 0 0 0 0 0 0 0 0 0 0
0 0 0 0 0 0 0 0 0 0 0 0 0 0 0 0 0 0 0 1 1 0 0 0 0 0 0 0 0 0 0 0 0 0 0 0 0 0 0 0 0 0 0 0 0 0 0 0 0
0 0 0 0 0 0 0 0 0 0 0 0 0 0 0 1 1 1 1 2 2 1 0 0 0 0 0 0 0 0 0 0 0 0 0 0 0 0 0 0 0 0 0 0 0 0 0 0 0
0 0 0 0 0 0 0 0 0 0 0 0 0 0 0 1 2 2 3 3 3 2 1 0 0 0 0 0 0 0 0 0 0 0 0 0 0 0 0 0 0 0 0 0 0 0 0 0 0
0 0 0 0 0 0 0 0 0 0 0 0 0 0 0 0 1 3 3 3 3 3 2 1 0 0 0 0 0 0 0 0 0 0 0 0 0 0 0 0 0 0 0 0 0 0 0 0 0
0 0 0 0 0 0 0 0 0 0 0 0 0 0 0 0 1 3 4 3 3 3 2 1 0 0 0 0 0 0 0 0 0 0 0 0 0 0 0 0 0 0 0 0 0 0 0 0 0
Wind_Speed
10 9 6 2 2 2 2 5 7 6 7 9 10 10 13 12 9 8 2 4 9 11 11 11 12 12 12 12 12 11 10 10 10 10 10 10 10 9 9 9 9 9 9 9 8 8 8 8 8
10 6 3 2 2 0 3 5 9 8 7 6 9 12 12 11 10 8 4 5 9 12 11 11 13 12 12 12 11 11 11 11 11 10 10 9 9 8 8 8 8 8 8 8 7 7 8 7 7
11 6 3 2 2 2 4 6 8 8 6 6 9 11 9 7 8 5 4 7 11 13 12 11 13 13 12 11 11 11 11 11 10 9 9 9 8 8 7 7 7 7 7 7 6 6 7 6 6
5 3 4 2 4 7 7 6 6 7 5 7 10 10 9 8 6 6 6 9 12 13 12 11 13 13 12 12 12 11 11 10 10 9 9 8 8 7 7 6 6 6 6 6 6 6 6 6 5
3 3 3 0 6 8 7 6 5 6 6 10 12 11 9 8 8 8 7 10 11 12 12 11 13 13 13 12 12 11 10 10 9 9 9 8 7 7 7 6 6 6 6 5 5 5 5 4 4
3 3 2 2 6 6 6 5 6 8 8 10 11 11 8 7 8 7 8 9 10 11 12 11 13 13 13 12 11 11 10 9 8 8 7 7 7 6 6 6 6 6 6 6 5 5 4 3 2
3 4 2 3 6 5 6 5 6 7 8 7 8 10 8 8 6 7 8 8 8 9 10 10 9 10 12 12 11 10 8 7 7 6 5 5 6 6 6 6 6 5 5 5 5 5 4 2 1
3 4 2 2 5 5 5 5 6 7 7 6 7 8 9 8 7 7 7 7 7 7 7 8 9 9 8 8 9 8 7 6 5 4 4 4 4 5 5 6 6 5 5 5 4 4 3 2 2
4 2 2 3 4 6 6 5 6 6 8 10 12 13 12 12 9 8 6 6 6 6 6 6 6 6 7 7 8 7 7 5 5 4 5 5 3 4 4 7 6 5 5 4 3 2 2 1 2
2 1 2 3 4 6 5 5 5 6 8 11 13 14 13 10 8 7 7 6 6 5 6 6 6 5 5 5 5 3 3 3 3 2 2 2 2 3 5 7 6 5 4 3 3 3 3 3 2
1 2 3 5 6 6 5 4 5 7 6 9 12 13 10 9 7 6 6 6 5 5 4 5 5 5 5 3 3 2 1 1 2 3 2 2 2 2 3 3 3 3 3 2 3 3 3 3 2
1 3 3 5 6 5 4 4 5 7 7 9 11 11 9 8 7 6 6 7 5 5 4 4 4 5 6 4 2 2 1 2 2 2 3 2 1 1 2 2 2 2 1 1 1 1 1 0 2
2 3 4 4 4 4 5 6 7 8 9 11 11 10 8 7 7 6 7 6 6 4 4 5 5 5 5 3 1 3 2 2 3 2 2 2 2 2 1 2 2 2 1 1 0 2 3 3 4
3 4 5 4 4 4 5 6 6 9 9 11 10 9 8 7 7 6 6 7 6 5 5 3 3 4 4 3 3 3 2 2 2 1 2 2 2 1 2 2 2 2 2 1 2 3 3 4 4
3 4 5 4 4 4 4 4 6 10 10 10 9 8 8 7 6 5 5 6 7 6 6 3 3 5 6 5 3 3 3 3 2 2 2 3 3 3 2 2 2 2 2 2 3 3 3 3 4
5 5 4 4 4 4 3 3 7 9 10 10 9 8 7 6 7 6 6 5 6 7 7 4 4 6 5 4 3 3 4 3 3 3 4 4 4 5 3 2 2 3 3 3 3 3 4 4 4
6 6 6 6 5 5 4 4 7 8 9 9 8 9 9 7 6 6 6 5 5 6 7 5 4 5 4 3 3 4 4 3 3 4 4 5 5 4 3 2 2 3 3 2 3 3 3 3 3
5 5 5 6 6 6 5 5 8 9 9 8 8 8 8 8 7 7 6 6 5 4 5 6 4 5 4 2 3 3 4 3 4 4 4 5 4 4 3 1 3 4 3 3 3 3 3 2 2
5 4 3 4 5 5 5 6 9 10 8 7 8 9 8 8 9 8 7 6 5 4 5 6 5 5 3 2 3 3 2 3 3 3 3 3 4 4 3 3 4 3 3 3 4 2 2 2 3
5 4 2 4 4 4 4 6 8 10 10 8 8 8 9 9 9 8 8 7 6 4 4 6 5 5 5 2 3 3 3 3 3 2 3 4 5 4 3 3 3 3 3 4 4 3 2 1 2
5 4 2 2 2 4 4 5 7 10 9 8 8 9 10 10 12 10 9 7 6 4 4 5 5 6 5 4 3 3 3 2 2 3 2 4 5 5 5 4 3 3 3 3 3 3 2 1 1
5 3 3 4 4 4 6 3 7 10 9 9 8 9 10 10 11 10 9 8 7 5 4 5 5 6 5 5 3 3 3 2 2 2 2 3 4 4 4 4 4 4 3 2 2 3 2 2 1
3 1 4 6 5 6 6 5 5 9 10 11 10 9 10 10 11 11 10 9 7 6 4 4 6 6 6 5 3 2 3 2 2 2 3 4 3 3 3 4 4 4 3 4 5 4 3 2 2
2 3 6 6 4 6 7 6 3 7 10 11 11 11 11 12 11 11 10 8 7 6 5 5 6 6 5 4 4 3 3 3 3 3 3 3 2 2 3 3 3 3 3 4 3 3 4 3 3
6 5 3 4 5 5 5 5 4 7 7 8 8 10 10 10 12 12 11 9 8 7 6 6 6 5 4 3 4 4 4 3 4 3 3 3 2 2 2 3 3 3 3 4 3 3 3 3 3
7 8 4 3 3 2 4 3 4 7 7 7 7 8 10 10 10 11 11 10 9 9 8 7 6 6 5 4 3 4 4 3 2 3 3 3 2 3 3 4 4 4 3 4 3 3 3 3 4
7 7 7 6 7 4 3 4 6 7 7 7 8 7 9 11 11 12 11 11 10 9 8 8 7 6 5 4 3 4 4 4 3 3 3 3 2 3 5 4 4 4 4 4 4 4 4 5 4
8 6 5 4 3 4 3 3 4 8 8 7 7 8 9 10 12 12 11 10 10 9 8 8 7 7 6 4 4 3 4 4 3 3 3 3 3 3 4 4 5 4 4 4 4 4 4 5 4
9 8 6 4 4 3 2 1 3 7 7 7 7 8 8 9 10 11 10 10 10 9 9 8 7 7 6 5 4 4 4 4 4 3 2 3 4 4 4 3 4 4 4 4 4 3 4 4 3
8 8 7 4 4 4 3 0 4 4 5 5 6 7 8 8 8 9 10 10 10 10 10 9 8 7 6 6 5 6 5 4 4 4 3 3 3 4 4 3 3 4 5 4 4 4 4 3 4
Wind_Direction
282 259 246 242 262 245 47 58 72 66 59 52 51 64 67 52 54 85 113 90 96 98 97 90 87 88 86 85 84 83 83 85 89 88 87 88 86 86 85 84 84 83 81 78 74 72 73 72 71
286 287 274 235 259 315 63 68 74 64 77 75 63 67 72 66 68 87 92 88 92 92 88 88 89 88 86 86 85 84 85 85 85 86 87 87 87 85 84 85 86 84 84 82 80 76 74 72 73
271 272 264 252 296 55 85 83 89 79 67 73 74 60 56 60 66 84 110 101 92 90 91 90 90 88 88 88 87 85 86 86 86 86 87 86 85 85 85 87 90 89 88 85 83 81 77 73 70
275 265 245 250 52 62 81 87 99 96 73 73 83 72 67 54 79 106 116 102 96 98 96 96 95 92 90 89 89 88 86 84 84 83 82 83 83 83 84 85 89 91 88 83 80 81 79 74 67
248 255 263 26 75 73 75 82 82 84 77 76 82 89 82 74 92 101 100 98 98 101 103 104 102 98 93 90 89 88 86 84 83 81 79 81 82 81 80 78 82 85 85 83 83 84 84 78 67
270 259 276 89 93 82 72 68 76 77 81 85 94 96 92 97 92 91 91 92 97 106 111 113 112 108 101 95 90 87 85 84 83 82 84 85 86 86 84 83 83 85 85 83 83 90 93 89 75
286 291 287 103 102 87 69 52 64 80 80 74 92 99 110 105 102 103 100 100 104 112 119 127 130 119 109 102 98 94 93 93 93 95 99 101 101 99 94 88 85 92 94 93 90 93 96 109 117
286 295 312 82 103 92 78 74 79 83 84 84 92 110 122 125 127 118 114 114 117 119 121 128 134 133 130 123 120 120 121 124 127 138 153 152 140 128 115 107 99 101 104 106 105 107 115 128 153
269 278 356 54 91 106 111 99 91 90 87 75 75 97 117 132 134 129 125 120 122 122 125 123 124 130 134 135 137 151 153 163 166 186 206 202 180 161 131 108 113 116 124 131 134 142 153 180 204
252 335 31 65 97 116 118 110 112 105 96 96 96 104 122 139 141 138 135 128 126 124 121 120 122 122 115 109 132 160 146 161 175 149 175 172 103 98 111 124 132 137 143 159 188 198 221 237 221
329 54 58 71 89 110 118 108 105 106 110 119 123 128 134 137 134 125 121 114 108 101 99 111 113 114 111 99 97 89 97 126 100 96 87 78 96 126 133 147 159 169 178 196 190 206 220 211 190
66 60 72 88 95 112 116 107 95 95 107 118 122 130 137 142 133 123 110 109 108 94 83 87 94 95 90 85 102 106 75 73 62 57 81 70 61 69 98 120 139 149 144 152 177 202 183 114 114
124 109 100 106 112 112 100 101 103 105 112 119 128 135 147 142 130 121 115 112 107 104 85 57 60 76 89 89 80 90 65 71 85 41 68 74 81 87 94 102 90 79 82 95 10 61 63 51 51
121 133 130 123 109 111 121 126 123 122 129 130 137 146 151 136 131 134 136 134 125 120 103 88 86 97 112 104 84 88 100 87 78 59 81 87 91 102 88 88 85 75 57 36 61 81 71 66 61
158 154 141 141 142 140 137 128 134 138 145 145 150 151 149 142 146 147 133 131 130 123 113 108 96 76 68 60 58 72 68 68 59 34 56 74 74 68 71 71 84 89 72 51 49 68 69 80 75
194 185 176 177 173 162 190 148 141 149 159 158 161 156 155 155 166 148 132 126 125 123 118 107 92 85 76 66 52 58 58 51 52 34 21 42 65 71 55 51 61 72 67 62 60 50 60 62 65
210 215 184 171 186 177 205 157 152 166 173 167 170 166 164 171 164 135 128 125 122 125 130 129 105 101 96 101 82 62 66 49 54 46 25 23 35 61 69 44 51 72 65 58 71 66 73 77 78
226 227 181 171 177 187 198 172 164 179 188 179 177 170 170 167 156 139 133 126 115 114 121 111 103 104 101 90 87 68 58 52 51 53 40 23 24 41 54 53 66 70 68 58 65 70 74 82 84
280 265 198 156 161 194 196 189 179 178 190 188 180 173 174 161 150 140 133 130 127 123 123 127 137 118 107 84 88 86 80 72 60 59 41 29 38 37 46 48 60 65 83 88 85 74 77 83 95
255 249 224 144 160 204 212 206 188 180 193 195 186 180 172 157 148 142 148 152 151 150 154 142 127 118 108 89 105 108 101 100 92 63 39 37 42 30 43 63 70 69 70 67 72 68 59 54 91
234 235 227 180 181 224 238 224 194 185 191 195 190 185 174 166 156 157 160 154 151 164 169 134 126 121 117 98 76 80 72 78 84 76 49 41 42 30 33 40 57 79 84 89 95 89 76 51 39
238 238 232 224 228 234 220 230 196 184 187 196 196 187 172 169 159 160 158 155 162 166 151 134 132 123 111 108 99 115 113 103 105 109 115 82 63 51 36 40 38 66 74 77 81 83 80 70 38
257 283 249 250 250 260 240 240 204 175 192 197 193 187 172 171 162 161 158 161 162 154 151 131 119 114 110 114 113 103 100 109 105 105 104 91 64 59 48 52 51 61 64 64 61 57 46 58 52
221 239 246 245 251 251 231 229 190 182 196 191 185 185 177 172 165 158 154 155 150 143 136 117 115 113 118 137 143 129 127 126 116 112 111 111 95 67 58 63 59 67 68 70 72 73 62 53 46
214 220 230 217 218 234 202 214 180 171 178 179 181 181 172 168 163 157 157 159 155 148 143 131 128 130 144 172 160 150 151 140 132 131 119 116 112 97 82 72 67 68 76 76 73 81 84 72 56
220 230 237 255 239 215 189 209 141 145 151 166 172 171 169 167 161 159 161 161 158 154 153 151 152 153 164 184 174 148 141 132 125 130 124 115 113 114 106 85 75 67 72 76 61 66 71 74 67
225 240 260 282 293 282 201 155 131 135 144 158 162 163 167 165 163 161 163 164 163 160 161 163 159 160 169 183 169 149 145 129 132 124 112 110 113 116 108 102 90 70 58 57 58 58 61 61 53
249 254 254 255 279 273 244 198 164 152 152 156 158 159 165 164 168 165 166 167 165 162 163 163 161 166 170 174 163 142 123 121 127 112 112 120 112 100 109 120 117 108 90 69 62 62 68 78 68
220 234 242 249 247 270 266 78 79 138 144 154 159 163 165 167 170 168 167 168 165 161 162 167 169 168 167 167 159 143 134 136 122 110 117 122 124 126 120 116 115 116 109 93 74 74 70 77 79
238 234 231 237 257 264 278 153 121 128 136 152 159 161 162 164 164 164 165 168 170 167 166 171 172 167 164 166 164 157 146 146 143 145 151 146 138 126 122 120 114 111 109 104 95 85 76 70 71